This is the latest recevied weather packets stored in our database for station/object G4KVI. If no packets are shown the sender has not sent any weather packets the latest 10 day(s).
| Time | Temp. | Humidity | Pressure | Rain* | Wind** | Luminosity | Snow |
|---|---|---|---|---|---|---|---|
| 1788283203 | 18.89° C | 64% | 1022.3 hPa | 0 mm | - | 70 W/m² | - |
| 1788282903 | 18.89° C | 63% | 1022 hPa | 0 mm | - | 78 W/m² | - |
| 1788282603 | 18.89° C | 63% | 1022.4 hPa | 0 mm | - | 84 W/m² | - |
| 1788282303 | 18.89° C | 62% | 1022.2 hPa | 0 mm | - | 109 W/m² | - |
| 1788282003 | 19.44° C | 62% | 1022.1 hPa | 0 mm | - | 110 W/m² | - |
| 1788281721 | 19.44° C | 61% | 1022.3 hPa | 0 mm | - | 133 W/m² | - |
| 1788281403 | 20° C | 60% | 1022.2 hPa | 0 mm | - | 135 W/m² | - |
| 1788281103 | 19.44° C | 61% | 1022.4 hPa | 0 mm | - | 249 W/m² | - |
| 1788280803 | 19.44° C | 62% | 1022.3 hPa | 0 mm | - | 131 W/m² | - |
| 1788280503 | 19.44° C | 61% | 1022.4 hPa | 0 mm | - | 161 W/m² | - |
| 1788280203 | 19.44° C | 60% | 1022.1 hPa | 0 mm | - | 137 W/m² | - |
| 1788279903 | 19.44° C | 60% | 1022.3 hPa | 0 mm | - | 207 W/m² | - |
| 1788279603 | 20° C | 59% | 1022.4 hPa | 0 mm | - | 179 W/m² | - |
| 1788279303 | 20° C | 59% | 1022.4 hPa | 0 mm | - | 189 W/m² | - |
| 1788279003 | 19.44° C | 59% | 1022.4 hPa | 0 mm | - | 242 W/m² | - |
| 1788278703 | 19.44° C | 60% | 1022.4 hPa | 0 mm | - | 218 W/m² | - |
| 1788278403 | 19.44° C | 60% | 1022.4 hPa | 0 mm | - | 190 W/m² | - |
| 1788278103 | 20° C | 61% | 1022.5 hPa | 0 mm | - | 192 W/m² | - |
| 1788277803 | 20° C | 61% | 1022.6 hPa | 0 mm | - | 144 W/m² | - |
| 1788277503 | 20.56° C | 58% | 1022.3 hPa | 0 mm | - | 156 W/m² | - |
| 1788277203 | 21.11° C | 57% | 1022.3 hPa | 0 mm | - | 178 W/m² | - |
| 1788276903 | 21.67° C | 56% | 1022.4 hPa | 0 mm | - | 167 W/m² | - |
| 1788276603 | 21.67° C | 56% | 1022.2 hPa | 0 mm | - | 400 W/m² | - |
| 1788276303 | 21.11° C | 57% | 1022.1 hPa | 0 mm | - | 410 W/m² | - |
| 1788276024 | 20.56° C | 57% | 1022.2 hPa | 0 mm | - | 318 W/m² | - |
* Rain latest hour (hover to see other rain measurements)
** Current wind speed in m/s (hover to see current wind gust speed)